Weather History for Denison, IA

Change the Weather History Date:

Thursday, October 9, 2014

  Actual Average Record
Temperature  
Mean Temperature 52 °F -  
Max Temperature 60 °F 66 °F 86 °F (2010)
Min Temperature 44 °F 44 °F 26 °F (2000)
Degree Days  
Heating Degree Days 13    
Growing Degree Days 2 (Base 50)    
Moisture  
Dew Point 43 °F    
Average Humidity 75    
Maximum Humidity 100    
Minimum Humidity 44    
Precipitation  
Precipitation 0.48 in - - ()
Sea Level Pressure  
Sea Level Pressure 30.11 in    
Wind  
Wind Speed 7 mph (ENE)    
Max Wind Speed 14 mph    
Max Gust Speed 22 mph    
Visibility 9 miles    
Events Rain    
Averages and records for this station are not official NWS values.
T = Trace of Precipitation, MM = Missing Value Source: NWS Daily Summary

Daily Weather History Graph

Daily Weather History Graph

Search for Another Location

Airport:

Trip Planner

Search our weather history database for the weather conditions in past years. The results will help you decide how hot, cold, wet, or windy it might be!

Date:

Astronomy

Oct. 09, 2014 Rise Set
Actual Time 7:27 AM CDT 6:49 PM CDT
Civil Twilight 6:59 AM CDT 7:17 PM CDT
Nautical Twilight 6:26 AM CDT 7:49 PM CDT
Astronomical Twilight 5:54 AM CDT 8:22 PM CDT
Moon 7:44 PM CDT (10/9) 8:44 AM CDT (10/9)
Length of Visible Light 12h 18m
Length of Day
11h 22m
Full, 98% of the Moon is Illuminated
Oct 9
Full
Oct 15
Last Quarter
Oct 23
New
Oct 30
First Quarter
Nov 6
Full

Hourly Weather History & Observations

Time (CDT) Temp. Windchill Dew Point Humidity Pressure Visibility Wind Dir Wind Speed Gust Speed Precip Events Conditions
12:15 AM 50.0 °F - 50.0 °F 100% 30.07 in 5.0 mi Calm Calm - N/A Rain Light Rain
12:35 AM 50.0 °F - 50.0 °F 100% 30.04 in 6.0 mi ENE 11.5 mph - N/A   Overcast
12:55 AM 50.0 °F - 50.0 °F 100% 30.05 in 4.0 mi East 4.6 mph 11.5 mph 0.07 in Rain Light Rain
1:15 AM 50.0 °F - 50.0 °F 100% 30.06 in 3.0 mi Calm Calm - N/A Rain Rain
1:35 AM 50.0 °F - 50.0 °F 100% 30.07 in 4.0 mi Variable 3.5 mph - N/A Rain Light Rain
1:55 AM 50.0 °F - 50.0 °F 100% 30.06 in 2.5 mi East 5.8 mph - 0.15 in Rain Light Rain
2:15 AM 50.0 °F - 50.0 °F 100% 30.07 in 4.0 mi Calm Calm - N/A Rain Light Rain
2:35 AM 50.0 °F - 50.0 °F 100% 30.08 in 3.0 mi North 5.8 mph - N/A   Overcast
2:55 AM 50.0 °F - 50.0 °F 100% 30.07 in 2.5 mi NNE 5.8 mph - 0.16 in Rain Rain
3:15 AM 50.0 °F - 50.0 °F 100% 30.05 in 3.0 mi ENE 6.9 mph - N/A Rain Light Rain
3:35 AM 50.0 °F - 50.0 °F 100% 30.05 in 7.0 mi Calm Calm - N/A Rain Light Rain
3:55 AM 50.0 °F - 50.0 °F 100% 30.05 in 10.0 mi East 4.6 mph - 0.04 in   Overcast
4:15 AM 50.0 °F - 50.0 °F 100% 30.04 in 4.0 mi East 8.1 mph - N/A Rain Light Rain
4:35 AM 50.0 °F - 50.0 °F 100% 30.06 in 7.0 mi SE 4.6 mph - N/A Rain Light Rain
4:55 AM 50.0 °F - 50.0 °F 100% 30.07 in 10.0 mi ESE 4.6 mph - 0.06 in   Overcast
5:15 AM 50.0 °F - 50.0 °F 100% 30.08 in 10.0 mi ESE 5.8 mph - N/A   Overcast
5:35 AM 50.0 °F - 50.0 °F 100% 30.09 in 10.0 mi East 5.8 mph - N/A   Overcast
5:55 AM 50.0 °F - 50.0 °F 100% 30.09 in 10.0 mi East 6.9 mph - N/A   Overcast
6:15 AM 50.0 °F - 50.0 °F 100% 30.08 in 10.0 mi East 9.2 mph - N/A   Overcast
6:35 AM 50.0 °F - 50.0 °F 100% 30.08 in 10.0 mi East 6.9 mph - N/A   Overcast
6:55 AM 50.0 °F - 50.0 °F 100% 30.08 in 10.0 mi NE 8.1 mph - N/A   Overcast
7:15 AM 48.2 °F - 48.2 °F 100% 30.08 in - ENE 10.4 mph - N/A   Unknown
7:35 AM 50.0 °F - 50.0 °F 100% 30.08 in 10.0 mi ENE 11.5 mph 17.3 mph N/A   Overcast
7:55 AM 50.0 °F - 50.0 °F 100% 30.09 in 10.0 mi NE 11.5 mph 17.3 mph N/A   Overcast
8:15 AM 50.0 °F - 50.0 °F 100% 30.09 in 10.0 mi ENE 9.2 mph 17.3 mph N/A   Overcast
8:35 AM 50.0 °F - 50.0 °F 100% 30.10 in 10.0 mi ENE 10.4 mph - N/A   Overcast
8:55 AM 50.0 °F - 50.0 °F 100% 30.11 in 10.0 mi ENE 9.2 mph 15.0 mph N/A   Overcast
9:15 AM 50.0 °F - 50.0 °F 100% 30.11 in 10.0 mi ENE 10.4 mph - N/A   Overcast
9:35 AM 50.0 °F - 50.0 °F 100% 30.11 in 10.0 mi ENE 10.4 mph - N/A   Overcast
9:55 AM 51.8 °F - 48.2 °F 88% 30.12 in 10.0 mi ENE 11.5 mph - N/A   Overcast
10:15 AM 51.8 °F - 46.4 °F 82% 30.12 in 10.0 mi ENE 10.4 mph 16.1 mph N/A   Overcast
10:35 AM 53.6 °F - 46.4 °F 77% 30.12 in 10.0 mi East 9.2 mph - N/A   Overcast
10:55 AM 53.6 °F - 42.8 °F 67% 30.14 in 10.0 mi East 10.4 mph 21.9 mph N/A   Overcast
11:15 AM 53.6 °F - 42.8 °F 67% 30.13 in 10.0 mi ENE 10.4 mph - N/A   Overcast
11:35 AM 53.6 °F - 42.8 °F 67% 30.14 in 10.0 mi ENE 12.7 mph - N/A   Overcast
11:55 AM 55.4 °F - 41.0 °F 58% 30.14 in 10.0 mi ENE 11.5 mph 19.6 mph N/A   Overcast
12:15 PM 55.4 °F - 41.0 °F 58% 30.13 in 10.0 mi NE 13.8 mph - N/A   Overcast
12:35 PM 57.2 °F - 41.0 °F 55% 30.14 in 10.0 mi ENE 11.5 mph - N/A   Overcast
12:55 PM 57.2 °F - 42.8 °F 59% 30.14 in 10.0 mi NE 10.4 mph 16.1 mph N/A   Overcast
1:15 PM 59.0 °F - 41.0 °F 51% 30.14 in 10.0 mi East 9.2 mph 16.1 mph N/A   Overcast
1:35 PM 59.0 °F - 42.8 °F 55% 30.14 in 10.0 mi Variable 5.8 mph 13.8 mph N/A   Overcast
1:55 PM 59.0 °F - 41.0 °F 51% 30.13 in 10.0 mi NE 10.4 mph 17.3 mph N/A   Scattered Clouds
2:15 PM 59.0 °F - 41.0 °F 51% 30.12 in 10.0 mi East 10.4 mph 17.3 mph N/A   Clear
2:35 PM 59.0 °F - 39.2 °F 48% 30.12 in 10.0 mi ENE 9.2 mph 15.0 mph N/A   Clear
2:55 PM 60.8 °F - 41.0 °F 48% 30.11 in 10.0 mi ENE 6.9 mph 12.7 mph N/A   Clear
3:15 PM 60.8 °F - 41.0 °F 48% 30.11 in 10.0 mi NE 8.1 mph 15.0 mph N/A   Clear
3:35 PM 60.8 °F - 41.0 °F 48% 30.10 in 10.0 mi ENE 9.2 mph - N/A   Clear
3:55 PM 60.8 °F - 41.0 °F 48% 30.10 in 10.0 mi NE 10.4 mph - N/A   Clear
4:15 PM 60.8 °F - 41.0 °F 48% 30.10 in 10.0 mi NNE 11.5 mph - N/A   Clear
4:35 PM 60.8 °F - 39.2 °F 45% 30.10 in 10.0 mi NNE 11.5 mph - N/A   Clear
4:55 PM 59.0 °F - 39.2 °F 48% 30.10 in 10.0 mi NNE 11.5 mph - N/A   Clear
5:15 PM 59.0 °F - 37.4 °F 45% 30.10 in 10.0 mi NE 8.1 mph - N/A   Clear
5:35 PM 57.2 °F - 37.4 °F 48% 30.11 in 10.0 mi NNE 12.7 mph - N/A   Clear
5:55 PM 57.2 °F - 35.6 °F 44% 30.11 in 10.0 mi NE 10.4 mph - N/A   Clear
6:15 PM 55.4 °F - 35.6 °F 47% 30.12 in 10.0 mi NE 8.1 mph 16.1 mph N/A   Clear
6:35 PM 53.6 °F - 33.8 °F 47% 30.12 in - NNE 9.2 mph 16.1 mph N/A   Clear
6:55 PM 53.6 °F - 33.8 °F 47% 30.12 in 10.0 mi NE 8.1 mph - N/A   Clear
7:15 PM 51.8 °F - 33.8 °F 50% 30.12 in 10.0 mi NE 11.5 mph - N/A   Clear
7:35 PM 51.8 °F - 33.8 °F 50% 30.12 in 10.0 mi NNE 10.4 mph 17.3 mph N/A   Clear
7:55 PM 50.0 °F - 33.8 °F 54% 30.13 in 10.0 mi NE 9.2 mph 15.0 mph N/A   Clear
8:15 PM 50.0 °F - 33.8 °F 54% 30.14 in 10.0 mi NE 8.1 mph - N/A   Clear
8:35 PM 48.2 °F - 33.8 °F 58% 30.15 in 10.0 mi NE 5.8 mph - N/A   Clear
8:55 PM 48.2 °F - 33.8 °F 58% 30.15 in 10.0 mi NE 5.8 mph - N/A   Clear
9:15 PM 48.2 °F - 35.6 °F 62% 30.16 in 10.0 mi NNE 3.5 mph - N/A   Clear
9:35 PM 46.4 °F 45.2 °F 37.4 °F 71% 30.17 in 10.0 mi NNE 3.5 mph - N/A   Partly Cloudy
9:55 PM 46.4 °F 45.2 °F 37.4 °F 71% 30.17 in 10.0 mi NNE 3.5 mph - N/A   Partly Cloudy
10:15 PM 46.4 °F 45.2 °F 35.6 °F 66% 30.18 in 10.0 mi NE 3.5 mph - N/A   Mostly Cloudy
10:35 PM 46.4 °F 45.2 °F 37.4 °F 71% 30.19 in 10.0 mi North 3.5 mph - N/A   Mostly Cloudy
10:55 PM 44.6 °F - 39.2 °F 81% 30.19 in 10.0 mi Calm Calm - N/A   Mostly Cloudy
11:15 PM 44.6 °F 41.4 °F 39.2 °F 81% 30.19 in 10.0 mi NNE 5.8 mph - N/A   Partly Cloudy
11:35 PM 44.6 °F 41.4 °F 37.4 °F 76% 30.20 in 10.0 mi NNE 5.8 mph - N/A   Clear
11:55 PM 44.6 °F 41.4 °F 39.2 °F 81% 30.20 in 10.0 mi NNE 5.8 mph - N/A   Partly Cloudy